CZ-6A DEB, 61417

Orbit data source: Space-Track

CZ-6A DEB, 61417 is space debris in LEO originally from a launch on Tue, 06 Aug 2024 UTC launched from the Taiyaun Space Center, China (TSC). Debris objects in space refer to the collection of defunct objects orbiting the Earth. Examples of debris include non-operational satellites, rocket bodies, and fragments generated from explosions, collisions, or faulty payload assembly.

Loading next visibility...
Identifier
61417, 2024-140YJ
Orbit
LEO
Country
Flag of CNCN / PRC
Related business
Manufacturer
SAST
Mission
Spacecraft
Bus & Motor
Unknown
Mass
Unknown
Launch date (UTC)
2024-08-06 (2 years ago)
Launch vehicle
Unknown
Launch site
Taiyaun Space Center, China (TSC)
Object type
Payload
Rocket body
Debris
Shape & HBR
Unknown shape, 0.1 m
Radar Cross Section
Small (<0.1 m²)

Expand to show TLE details & history
Last TLE update: 13 hours ago

TLE from 13 hours ago
0 CZ-6A DEB
1 61417U 24140YJ  26130.11711485  .00010424  00000-0  84853-3 0  9992
2 61417  88.9668 268.9160 0094326 255.4740 103.6015 14.95956280 90003
Epoch: 2026-05-10T02:48Z
TLE epoch observation values (Epoch: 2026-05-10T02:48:38.723Z)
Latitude
0.00003°
Longitude
-1.17015°
Altitude
598.587 km
Speed
7.552 km/s
True Right ascension
17h 55m 39s
True Declination
0° 00' 00"
Sunlit
Object was in full shadow at epoch
Visualization orbit readout
Latitude
Unknown
Longitude
Unknown
Altitude
Unknown
Speed
Unknown
Apparent Right ascension
Unknown
Apparent Declination
Unknown
Sunlit
N/A
Visualization observer readout
Local Sidereal Time
00:23:06
Azimuth
Unknown
Elevation
Unknown
Doppler factor
Unknown
Orbital elements
Apogee altitude
641.847 km
Perigee altitude
510.651 km
Semi-major axis
6,954.386 km
Eccentricity
0.00943
Inclination
88.9668°
RAAN
268.916°
Arg. of periapsis
255.474°
True anomaly
104.64912°
Mean anomaly
103.6015°
Eccentric anomaly
104.12561°
Mean motion
3.74244 °/min
Orbital period
96.19 mins
BSTAR
0.00084853
Loading maneuver chart data...
Computing Atmospheric mass density...
Loading historical data...
Loading historical data...
Loading historical data...
Loading historical data...
Loading historical data...
Loading historical data...
Loading historical data...

Documentation

Showing up to 5 results
|